Regional Weather Roundup
Issued by NWS

Home | Current Version | Previous Version | Graphics & Text | Print | Product List | Glossary On
Versions: 1 2 3 4 5 6 7 8 9 10 11 12 13 14 15 16 17 18 19 20 21 22 23 24 25 26 27 28 29 30 31 32 33 34 35 36 37 38 39 40 41 42 43 44 45 46 47 48 49 50
000
ASUS44 KMEG 250000
RWRTN
TENNESSEE HOURLY STATE WEATHER ROUNDUP
NATIONAL WEATHER SERVICE MEMPHIS TN
600 PM CST FRI FEB 24 2017

TNZ002-004-019-021-049-052-054-088>092-250100-
WEST TENNESSEE

CITY           SKY/WX    TMP DP  RH WIND       PRES   REMARKS
MEMPHIS INTL   CLOUDY    66  55  67 W6        29.70S
NWS MEMPHIS      N/A     67 N/A N/A MISG        N/A
JACKSON        CLOUDY    66  57  72 SW7       29.70R
UNION CITY     MOCLDY    64  54  68 CALM      29.66R
PARIS          CLEAR     61  54  77 SW10      29.68F
$$

TNZ008-025-027-028-033-062-065-066-250100-
NORTH MIDDLE TENNESSEE

CITY           SKY/WX    TMP DP  RH WIND       PRES   REMARKS
NASHVILLE      MOCLDY    75  50  41 SW13G22   29.65R
CLARKSVILLE    CLOUDY    67  52  58 W16G28    29.67R
SMYRNA         MOCLDY    74  54  49 S8        29.66R
CROSSVILLE     MOCLDY    69  52  54 VRB7      29.74R
$$

TNZ061-075-076-078-094-096-097-250100-
SOUTH MIDDLE TENNESSEE

CITY           SKY/WX    TMP DP  RH WIND       PRES   REMARKS
TULLAHOMA      PTCLDY    72  52  49 S7        29.71S
WINCHESTER     CLEAR     72  54  53 S5        29.72R
MCMINNVILLE    PTCLDY    73  55  53 S6        29.70S
COLUMBIA       PTCLDY    73  52  46 SW12      29.66S
SHELBYVILLE    CLEAR     73  55  53 S12       29.70R
$$

TNZ017-018-042-046-047-250100-
NORTHEAST TENNESSEE

CITY           SKY/WX    TMP DP  RH WIND       PRES   REMARKS
TRI CITIES     PTCLDY    70  50  49 SE12G22   29.73S
$$

TNZ012-013-036-069-073-074-250100-
CENTRAL EAST TENNESSEE

CITY           SKY/WX    TMP DP  RH WIND       PRES   REMARKS
KNOXVILLE      PTCLDY    70  50  49 SW12      29.70R
OAK RIDGE      PTCLDY    73  52  47 SW5       29.71R
GATLINBURG     CLEAR     73  46  38 SW10      29.70R
$$

TNZ083-085-099-250100-
SOUTHEAST TENNESSEE

CITY           SKY/WX    TMP DP  RH WIND       PRES   REMARKS
CHATTANOOGA    MOCLDY    75  52  44 S7        29.72R
$$

SKY/WX REPORTED AS FAIR MEANS FEW OR NO CLOUDS BELOW
12 THOUSAND FEET.




USA.gov is the U.S. government's official web portal to all federal, state and local government web resources and services.